Stillwater, OK

6:44 AM CST on February 27, 2017 (GMT -0600)
Stillwater Municipal

Weather History for KSWO - February, 2013

Change the Weather History Date:

Saturday, February 9, 2013

  Actual Average Record
Temperature  
Mean Temperature 39 °F -  
Max Temperature 46 °F 49 °F 75 °F (2000)
Min Temperature 33 °F 28 °F -2 °F (2011)
Degree Days  
Heating Degree Days 26    
Moisture  
Dew Point 37 °F    
Average Humidity 84    
Maximum Humidity 97    
Minimum Humidity 71    
Precipitation  
Precipitation 0.01 in - - ()
Sea Level Pressure  
Sea Level Pressure 29.95 in    
Wind  
Wind Speed 12 mph (SE)    
Max Wind Speed 22 mph    
Max Gust Speed 29 mph    
Visibility 7 miles    
Events Rain    
Averages and records for this station are not official NWS values.
T = Trace of Precipitation, MM = Missing Value Source: NWS Daily Summary

Daily Weather History Graph

Daily Weather History Graph

Search for Another Location

Airport or City:

Trip Planner

Search our weather history database for the weather conditions in past years. The results will help you decide how hot, cold, wet, or windy it might be!

Date:

Astronomy

Feb. 09, 2013 Rise Set
Actual Time 7:21 AM CST 6:03 PM CST
Civil Twilight 6:55 AM CST 6:30 PM CST
Nautical Twilight 6:24 AM CST 7:00 PM CST
Astronomical Twilight 5:55 AM CST 7:30 PM CST
Moon 6:34 AM CST (2/9) 5:46 PM CST (2/9)
Length of Visible Light 11h 35m
Length of Day
10h 41m
Waning Crescent, 0% of the Moon is Illuminated
Feb 9
Waning Crescent
Feb 10
New
Feb 17
First Quarter
Feb 25
Full
Mar 4
Last Quarter

Hourly Weather History & Observations

Time (CST) Temp. Windchill Dew Point Humidity Pressure Visibility Wind Dir Wind Speed Gust Speed Precip Events Conditions
12:53 AM 34.0 °F 28.8 °F 30.0 °F 85% 30.14 in 6.0 mi ENE 5.8 mph - N/A   Clear
1:53 AM 33.1 °F 28.7 °F 30.0 °F 89% 30.14 in 6.0 mi East 4.6 mph - N/A   Clear
2:53 AM 35.1 °F 30.1 °F 30.9 °F 85% 30.11 in 6.0 mi East 5.8 mph - N/A   Clear
3:53 AM 35.1 °F 31.0 °F 30.9 °F 85% 30.10 in 6.0 mi ESE 4.6 mph - N/A   Clear
4:53 AM 37.9 °F 30.5 °F 33.1 °F 83% 30.07 in 8.0 mi SE 11.5 mph - N/A   Clear
5:53 AM 39.0 °F 31.4 °F 33.1 °F 79% 30.07 in 10.0 mi SE 12.7 mph - N/A   Partly Cloudy
6:53 AM 39.0 °F 31.0 °F 34.0 °F 82% 30.08 in 10.0 mi SSE 13.8 mph - N/A   Clear
7:26 AM 39.2 °F 31.2 °F 33.8 °F 81% 30.07 in 10.0 mi SE 13.8 mph 23.0 mph N/A   Mostly Cloudy
7:48 AM 39.2 °F 30.8 °F 33.8 °F 81% 30.06 in 10.0 mi SE 15.0 mph - N/A   Scattered Clouds
7:53 AM 39.9 °F 31.8 °F 34.0 °F 79% 30.07 in 10.0 mi SE 15.0 mph - N/A   Partly Cloudy
8:53 AM 41.0 °F 33.1 °F 35.1 °F 79% 30.07 in 10.0 mi SE 15.0 mph - N/A   Clear
9:53 AM 43.0 °F 35.7 °F 36.0 °F 76% 30.06 in 10.0 mi SSE 15.0 mph 23.0 mph N/A   Overcast
10:53 AM 45.0 °F 36.9 °F 36.0 °F 71% 30.02 in 10.0 mi SE 20.7 mph 27.6 mph 0.00 in   Scattered Clouds
11:53 AM 42.1 °F 33.3 °F 36.0 °F 79% 29.99 in 9.0 mi SE 19.6 mph 26.5 mph 0.00 in Rain Light Rain
12:53 PM 43.0 °F 36.8 °F 37.0 °F 80% 29.99 in 9.0 mi SSE 11.5 mph 21.9 mph 0.00 in Rain Light Rain
1:43 PM 42.8 °F 35.4 °F 37.4 °F 81% 29.94 in 7.0 mi SE 15.0 mph 19.6 mph 0.00 in   Overcast
1:53 PM 43.0 °F 37.2 °F 37.9 °F 82% 29.93 in 7.0 mi SE 10.4 mph 23.0 mph 0.00 in   Overcast
2:53 PM 43.0 °F 35.4 °F 39.0 °F 86% 29.90 in 5.0 mi SE 16.1 mph - 0.01 in Rain Light Rain
3:53 PM 43.0 °F 34.0 °F 39.0 °F 86% 29.83 in 6.0 mi SE 21.9 mph 28.8 mph 0.00 in   Overcast
4:53 PM 44.1 °F 36.8 °F 39.0 °F 82% 29.82 in 8.0 mi SSE 16.1 mph 24.2 mph N/A   Overcast
5:53 PM 44.1 °F 35.9 °F 39.9 °F 85% 29.79 in 8.0 mi SSE 19.6 mph 26.5 mph N/A   Overcast
6:53 PM 44.1 °F 36.8 °F 39.9 °F 85% 29.80 in 8.0 mi SSE 16.1 mph - N/A   Overcast
7:53 PM 43.0 °F 34.2 °F 41.0 °F 93% 29.80 in 5.0 mi SSE 20.7 mph 25.3 mph N/A   Overcast
8:53 PM 43.0 °F 34.2 °F 42.1 °F 97% 29.75 in 3.0 mi SSE 20.7 mph 28.8 mph N/A   Overcast
9:53 PM 44.1 °F 36.8 °F 42.1 °F 93% 29.72 in 6.0 mi SE 16.1 mph 25.3 mph N/A   Overcast
10:53 PM 45.0 °F 37.9 °F 43.0 °F 93% 29.70 in 3.0 mi SSE 16.1 mph - N/A   Overcast
11:53 PM 46.9 °F - 46.0 °F 97% 29.71 in 3.0 mi South 9.2 mph 23.0 mph N/A   Overcast